Overview Statistics Trail Chart Weather Telemetry Raw packets
 

This is the latest recevied weather packets stored in our database for station/object KE5QKR. If no packets are shown the sender has not sent any weather packets the latest 10 day(s).

<< 22 23 24 25 26 27 28 >>
Time Temp. Humidity Pressure Rain* Wind** Luminosity Snow
1777820263 21.11° C 46% 1021 hPa 0 mm - 615 W/m² -
1777819960 21.11° C 46% 1020.8 hPa 0 mm - 600 W/m² -
1777819657 20.56° C 46% 1021.1 hPa 0 mm - 584 W/m² -
1777819356 21.11° C 54% 1021.2 hPa 0 mm - 570 W/m² -
1777819052 21.11° C 45% 1021.4 hPa 0 mm - 555 W/m² -
1777818749 21.11° C 47% 1021.1 hPa 0 mm - 538 W/m² -
1777818446 20.56° C 46% 1021.2 hPa 0 mm - 523 W/m² -
1777818143 20.56° C 47% 1020.9 hPa 0 mm - 507 W/m² -
1777817839 20° C 54% 1020.7 hPa 0 mm - 487 W/m² -
1777817537 20° C 56% 1021 hPa 0 mm - 470 W/m² -
1777817233 19.44° C 59% 1020.9 hPa 0 mm - 451 W/m² -
1777816930 19.44° C 59% 1020.7 hPa 0 mm - 435 W/m² -
1777816627 19.44° C 63% 1020.9 hPa 0 mm - 418 W/m² -
1777816324 19.44° C 62% 1020.9 hPa 0 mm - 401 W/m² -
1777816021 18.89° C 64% 1020.8 hPa 0 mm - 384 W/m² -
1777815719 18.89° C 64% 1020.8 hPa 0 mm - 365 W/m² -
1777815416 18.33° C 69% 1020.9 hPa 0 mm - 346 W/m² -
1777815113 17.78° C 69% 1020.9 hPa 0 mm - 329 W/m² -
1777814809 18.33° C 71% 1020.6 hPa 0 mm - 310 W/m² -
1777814506 17.22° C 74% 1020.9 hPa 0 mm - 292 W/m² -
1777814203 17.22° C 74% 1020.6 hPa 0 mm - 269 W/m² -
1777813900 16.11° C 79% 1020.6 hPa 0 mm - 238 W/m² -
1777813597 16.11° C 79% 1020.9 hPa 0 mm - 192 W/m² -
1777813295 15° C 83% 1020.6 hPa 0 mm - 144 W/m² -
1777812992 13.33° C 91% 1020.8 hPa 0 mm - 139 W/m² -

* Rain latest hour (hover to see other rain measurements)
** Current wind speed in m/s (hover to see current wind gust speed)